Regional Weather Roundup
Issued by NWS Charleston, SC

Current Version | Previous Version | Text Only | Print | Product List | Glossary Off
Versions: 1 2 3 4 5 6 7 8 9 10 11 12 13 14 15 16 17 18 19 20 21 22 23 24 25 26 27 28 29 30 31 32 33 34 35 36 37 38 39 40 41 42 43 44 45 46 47 48 49 50

000
ASUS42 KCHS 101325
RWRCHS

REGIONAL WEATHER ROUNDUP
NATIONAL WEATHER SERVICE CHARLESTON SC
900 AM EDT THU JUL 10 2014

NOTE: "FAIR" INDICATES FEW OR NO CLOUDS BELOW 12,000 FEET WITH NO
SIGNIFICANT WEATHER AND/OR OBSTRUCTIONS TO VISIBILITY.

NOT ALL STATIONS ARE QUALITY CONTROLLED BY THE NATIONAL
WEATHER SERVICE. USE DATA WITH CAUTION...ESPECIALLY
DEWPOINT OBSERVATIONS.

SCZ027-030-031-034>040-042>050-101400-
...SOUTH CAROLINA...

CITY           SKY/WX    TMP DP  RH WIND       PRES   REMARKS
N CHARLESTON   MOSUNNY   83  71  67 W8        30.09R
WATERFRONT PRK   N/A     81 N/A N/A SW6         N/A
FORT JOHNSON   NOT AVBL
MOUNT PLEASANT FAIR      84  73  70 SW8       30.09S HX  91
JOHNS ISLAND   SUNNY     82  68  61 CALM      30.09S
PINOPOLIS        N/A     82  73  74 SW9       30.01R
MONCKS CORNER    N/A     82  75  78 SW5       30.08S
SUMMERVILLE    FAIR      81  72  74 SW5       30.10S
BEAUFORT MCAS  MOSUNNY   81  70  69 W5        30.09S
BEAUFORT ARPT  NOT AVBL
HILTON HEAD IS MOSUNNY   81  72  74 SW7       30.11R
GEORGETOWN     NOT AVBL
WALTERBORO     MOSUNNY   81  73  78 W5        30.10S
ORANGEBURG     SUNNY     76  70  82 SW3       30.09R
BARNWELL       FAIR      79  70  73 W6        30.10R
AIKEN          FAIR      73  73 100 W3        30.13R
MANNING        FAIR      81  81 100 S3        30.08S HX  91
KINGSTREE      NOT AVBL
COLUMBIA       PTSUNNY   78  70  76 SW5       30.08R
SUMTER         MOSUNNY   80  71  71 SW3       30.06R
FLORENCE       SUNNY     81  73  76 SW7       30.07R
MYRTLE BEACH   PTSUNNY   81  73  78 SW6       30.08R
N MYRTLE BEACH TSTM      75  69  81 S7        30.09R

$$

GAZ063-065-086>088-099>101-113>116-118-119-134-136>141-150-101400-
...GEORGIA...

CITY           SKY/WX    TMP DP  RH WIND       PRES   REMARKS
SAVANNAH ARPT  PTSUNNY   78  71  79 SW6       30.10R
HUNTER AAF     MOSUNNY   79  73  81 S3        30.09R
FORT STEWART   MOSUNNY   78  72  81 SW6       30.10R
STATESBORO     NOT AVBL
SYLVANIA       MOSUNNY   80  73  79 CALM      30.11R
CLAXTON        FAIR      79  73  83 CALM      30.11R
THOMSON        CLOUDY    76  75  98 CALM      30.14R
AUGUSTA-BUSH   PTSUNNY   76  70  82 W5        30.08R
AUGUSTA-DANIEL PTSUNNY   75  70  84 CALM      30.10R
SWAINSBORO     FAIR      81  73  78 W6        30.11R
VIDALIA          N/A     81  72  74 W6        30.11S
ALMA           SUNNY     77  71  82 S5        30.11R
WAYCROSS       SUNNY     84  77  80 SW5       30.11S HX  93
JESUP          NOT AVBL
BRUNSWICK      SUNNY     82  72  69 CALM      30.12S
SAINT SIMONS   SUNNY     81  74  79 SW6       30.11R

$$

SCZ027-028-034-036>038-045-046-048>050-GAZ119-141-101400-
...LAKE AND SUPPLEMENTAL COASTAL OBSERVATIONS...

STATION/POSITION TIME  TEMP    WIND        PRES    WAVE   SWELL
                       AIR SEA DIR/SP/G            HT/PER HT/PER/DIR
                 (UTC) (F)     (DEG/KT/KT) (MB)    (FT/S) (FT/S/D)
UPR LAKE MARION  NOT AVBL
WINYAH BAY       1300   83     230/  8     1018.0S
LAKE MURRAY      1300   77     280/  4/  6 1017.9S
ACE BASIN NERRS  1300   80     250/  1     1019.0S
FORT PULASKI     1300   79 78  220/  4/  6   N/A
SAPELO ISLAND    1300   82     230/  7     1020.0S

$$

ANZ835-935-AMZ111-154-330-350-352-354-374-450-454-472-101400-
...C-MAN AND BUOY OBSERVATIONS...

STATION/POSITION TIME  TEMP    WIND        PRES    WAVE   SWELL
                       AIR SEA DIR/SP/G            HT/PER HT/PER/DIR
                 (UTC) (F)     (DEG/KT/KT) (MB)    (FT/S) (FT/S/D)
FOLLY BEACH CMAN 1300   82     220/ 11/ 13 1019.3R
BUOY 41004       1300   82 81  210/ 14/ 16 1018.2R   4/ 6   2/ 8
BUOY 41008       1300   81 84  210/  8/ 10 1019.4R   2/ 9   2/110/ 9
5E ST. MARYS GA  1300      83                N/A     2/11   2/110/11
FRYING PAN BUOY  NOT AVBL
BUOY 41025       1300          VRB 14/ 16  1019.6R   5/ 6   2/150/ 8
CAPE LOOKOUT NC  1300   82     200/ 10/ 12 1019.6R
BUOY 41002       1243   80 81  190/ 14/ 16 1022.4R   3/ 9   2/ 80/ 9
BUOY 41010       1300   81 82  170/ 10/ 12 1020.8R   3/ 8   2/110/ 8
BUOY 41012       NOT AVBL
ST AUGUSTINE FL  1300   82     260/  4/  5 1020.9R
CAPERS NEARSHORE 1200   82     240/ 14/ 16   N/A
FRIPP NEARSHORE  1200   83     240/  8/ 10   N/A


$$



USA.gov is the U.S. government's official web portal to all federal, state and local government web resources and services.